FW8871 Weather Reports


Display with metric or nautical units.
time (UTC)temp
F
wind
direction
speed
MPH
gust
MPH
rain 1hr
in
rain 24hr
in
rain mn
in
humidity
%
barometer
mb
20260504180549 82 0 0.0 7.0 0.00 0.00 0.00 20 1005.0
20260504180053 82 0 0.0 7.0 0.00 0.00 0.00 22 1005.0
20260504175548 82 314 4.0 7.0 0.00 0.00 0.00 21 1005.0
20260504175048 82 0 0.0 10.0 0.00 0.00 0.00 22 1005.1
20260504174559 82 0 0.0 10.0 0.00 0.00 0.00 21 1005.1
20260504174047 82 346 3.0 10.0 0.00 0.00 0.00 22 1005.1
20260504173547 82 0 0.0 0.0 0.00 0.00 0.00 22 1005.2
20260504173052 82 0 0.0 0.0 0.00 0.00 0.00 21 1005.2
20260504172548 82 0 0.0 8.0 0.00 0.00 0.00 23 1005.3
20260504172045 81 0 2.0 8.0 0.00 0.00 0.00 23 1005.5
20260504171549 81 359 3.0 7.0 0.00 0.00 0.00 23 1005.5
20260504171048 82 346 4.0 7.0 0.00 0.00 0.00 23 1005.4
20260504170546 82 0 0.0 8.0 0.00 0.00 0.00 24 1005.5
20260504151048 69 274 4.0 7.0 0.00 0.00 0.00 41 1005.5
20260504150548 69 263 4.0 7.0 0.00 0.00 0.00 42 1005.5
20260504141046 60 295 5.0 8.0 0.00 0.00 0.00 52 1005.7
20260504140548 59 290 5.0 8.0 0.00 0.00 0.00 53 1005.7
20260504130548 50 276 5.0 7.0 0.00 0.00 0.00 62 1005.8
20260504110545 47 189 1.0 3.0 0.00 0.00 0.00 59 1005.7
20260504100547 55 221 6.0 9.0 0.00 0.00 0.00 50 1005.5
20260504081552 58 230 5.0 11.0 0.00 0.00 0.00 42 1006.5
20260504081051 58 225 6.0 11.0 0.00 0.00 0.00 42 1006.5
20260504080548 58 221 6.0 11.0 0.00 0.00 0.00 42 1006.6
20260504050548 51 0 0.0 0.0 0.00 0.00 0.00 44 1007.7
20260504045547 52 0 0.0 0.0 0.00 0.00 0.00 43 1007.7
20260504045048 52 0 0.0 0.0 0.00 0.00 0.00 42 1007.8
20260504044559 53 0 0.0 0.0 0.00 0.00 0.00 41 1007.7
20260504044048 54 0 0.0 0.0 0.00 0.00 0.00 40 1007.7
20260504043549 55 0 0.0 0.0 0.00 0.00 0.00 38 1007.8
20260504043102 57 0 0.0 0.0 0.00 0.00 0.00 36 1007.8
20260504042549 58 0 0.0 0.0 0.00 0.00 0.00 36 1007.8
20260504042051 58 0 0.0 0.0 0.00 0.00 0.00 36 1007.9
20260504041554 58 0 0.0 0.0 0.00 0.00 0.00 36 1008.0
20260504041048 60 0 0.0 0.0 0.00 0.00 0.00 33 1008.1
20260504040549 62 0 0.0 0.0 0.00 0.00 0.00 32 1008.1
20260504040103 63 0 0.0 0.0 0.00 0.00 0.00 30 1008.1
20260504035549 63 0 0.0 0.0 0.00 0.00 0.00 30 1008.1
20260504035051 63 0 0.0 0.0 0.00 0.00 0.00 30 1008.0
20260504034558 63 0 0.0 0.0 0.00 0.00 0.00 30 1008.1
20260504034051 63 0 0.0 0.0 0.00 0.00 0.00 30 1008.0
20260504033548 63 0 0.0 4.0 0.00 0.00 0.00 31 1007.9
20260504033125 65 0 0.0 6.0 0.00 0.00 0.00 27 1007.9
20260504032548 64 207 4.0 6.0 0.00 0.00 0.00 28 1007.7
20260504032045 65 154 0.0 6.0 0.00 0.00 0.00 28 1007.7
20260504031549 66 0 0.0 7.0 0.00 0.00 0.00 27 1007.6
20260504031047 67 273 2.0 8.0 0.00 0.00 0.00 26 1007.6
20260504030545 67 240 4.0 10.0 0.00 0.00 0.00 25 1007.5
20260504030052 67 200 6.0 11.0 0.00 0.00 0.00 25 1007.5
20260504025546 67 200 7.0 11.0 0.00 0.00 0.00 26 1007.4
20260504025049 67 171 8.0 11.0 0.00 0.00 0.00 26 1007.2
20260504024550 67 191 7.0 11.0 0.00 0.00 0.00 26 1007.3
20260504024048 67 188 8.0 11.0 0.00 0.00 0.00 26 1007.4
20260504023548 67 205 7.0 9.0 0.00 0.00 0.00 25 1007.2
20260504023101 68 181 6.0 9.0 0.00 0.00 0.00 25 1007.3
20260504022547 68 176 6.0 9.0 0.00 0.00 0.00 25 1007.3
20260504022046 69 168 7.0 10.0 0.00 0.00 0.00 24 1007.2
20260504021552 69 162 7.0 10.0 0.00 0.00 0.00 24 1007.0
20260504021048 69 186 7.0 10.0 0.00 0.00 0.00 24 1007.0
20260504020548 70 184 6.0 9.0 0.00 0.00 0.00 24 1006.9
20260504020057 70 169 6.0 11.0 0.00 0.00 0.00 24 1006.9
20260504015548 71 186 7.0 12.0 0.00 0.00 0.00 23 1006.9
20260504015049 72 154 8.0 12.0 0.00 0.00 0.00 23 1006.9
20260504014553 72 168 8.0 12.0 0.00 0.00 0.00 22 1006.8
20260504014045 73 192 8.0 12.0 0.00 0.00 0.00 22 1006.7
20260504013547 73 187 8.0 12.0 0.00 0.00 0.00 22 1006.8
20260504013106 74 157 8.0 12.0 0.00 0.00 0.00 21 1006.8
20260504012551 75 168 8.0 11.0 0.00 0.00 0.00 21 1006.9
20260504012047 76 181 7.0 12.0 0.00 0.00 0.00 20 1006.9
20260504011552 76 206 9.0 12.0 0.00 0.00 0.00 20 1006.8
20260504011048 77 148 8.0 13.0 0.00 0.00 0.00 20 1006.8
20260504010547 78 166 8.0 13.0 0.00 0.00 0.00 19 1006.9
20260504010105 79 172 8.0 13.0 0.00 0.00 0.00 18 1006.9
20260504005551 80 146 10.0 14.0 0.00 0.00 0.00 18 1006.8
20260504005113 80 172 9.0 16.0 0.00 0.00 0.00 18 1006.9
20260504004617 80 177 9.0 17.0 0.00 0.00 0.00 18 1007.1
20260504004048 81 131 13.0 17.0 0.00 0.00 0.00 17 1006.9
20260504003550 81 172 10.0 17.0 0.00 0.00 0.00 17 1006.9
20260504003056 82 163 12.0 21.0 0.00 0.00 0.00 16 1007.0
20260504002545 82 186 15.0 24.0 0.00 0.00 0.00 16 1007.2
20260504002048 82 179 12.0 24.0 0.00 0.00 0.00 17 1007.2
20260504001612 83 195 12.0 20.0 0.00 0.00 0.00 16 1007.3
20260504001048 83 192 14.0 20.0 0.00 0.00 0.00 16 1007.3
20260504000548 83 202 14.0 21.0 0.00 0.00 0.00 15 1007.3
20260504000100 84 203 13.0 21.0 0.00 0.00 0.00 15 1007.4
20260503235545 84 202 15.0 22.0 0.00 0.00 0.00 15 1007.3
20260503235045 84 180 13.0 22.0 0.00 0.00 0.00 16 1007.3
20260503234554 84 198 14.0 22.0 0.00 0.00 0.00 15 1007.4
20260503234046 84 200 13.0 20.0 0.00 0.00 0.00 15 1007.5
20260503233551 84 203 13.0 23.0 0.00 0.00 0.00 15 1007.5
20260503233053 85 207 12.0 23.0 0.00 0.00 0.00 15 1007.5
20260503232548 85 198 10.0 19.0 0.00 0.00 0.00 15 1007.6
20260503232048 85 204 13.0 19.0 0.00 0.00 0.00 15 1007.7
20260503231549 84 198 12.0 19.0 0.00 0.00 0.00 15 1007.8
20260503231048 84 186 12.0 19.0 0.00 0.00 0.00 16 1008.0
20260503230549 84 184 13.0 21.0 0.00 0.00 0.00 15 1008.0
20260503230100 84 211 11.0 21.0 0.00 0.00 0.00 15 1008.1
20260503225548 85 195 13.0 21.0 0.00 0.00 0.00 15 1007.9
20260503225049 84 195 13.0 22.0 0.00 0.00 0.00 15 1008.1
20260503224553 83 198 13.0 22.0 0.00 0.00 0.00 15 1008.2
20260503224049 83 181 12.0 22.0 0.00 0.00 0.00 16 1008.2
20260503223549 83 152 14.0 22.0 0.00 0.00 0.00 16 1008.3
20260503223057 83 179 13.0 22.0 0.00 0.00 0.00 17 1008.5
20260503222548 83 209 14.0 22.0 0.00 0.00 0.00 16 1008.6
20260503222050 83 148 15.0 21.0 0.00 0.00 0.00 16 1008.7
20260503221552 83 201 13.0 22.0 0.00 0.00 0.00 15 1009.0
20260503221048 82 201 14.0 22.0 0.00 0.00 0.00 16 1009.1
20260503220548 82 226 17.0 22.0 0.00 0.00 0.00 16 1009.2
20260503220056 82 200 14.0 21.0 0.00 0.00 0.00 16 1009.2
20260503215549 82 215 14.0 21.0 0.00 0.00 0.00 15 1009.4
20260503215049 82 214 14.0 24.0 0.00 0.00 0.00 16 1009.3
20260503214550 82 205 15.0 24.0 0.00 0.00 0.00 16 1009.4
20260503214049 82 218 13.0 24.0 0.00 0.00 0.00 16 1009.5
20260503213549 82 188 14.0 24.0 0.00 0.00 0.00 16 1009.6
20260503213100 82 195 18.0 24.0 0.00 0.00 0.00 16 1009.7
20260503212548 82 178 15.0 25.0 0.00 0.00 0.00 16 1009.8
20260503212048 82 193 12.0 25.0 0.00 0.00 0.00 17 1009.9
20260503211549 82 202 17.0 25.0 0.00 0.00 0.00 16 1010.0
20260503211048 82 205 14.0 23.0 0.00 0.00 0.00 16 1010.2
20260503210552 83 237 15.0 27.0 0.00 0.00 0.00 16 1010.2
20260503210059 83 205 17.0 27.0 0.00 0.00 0.00 16 1010.3
20260503205549 82 203 16.0 23.0 0.00 0.00 0.00 16 1010.3
20260503205049 83 185 15.0 24.0 0.00 0.00 0.00 16 1010.4
20260503204554 82 218 13.0 24.0 0.00 0.00 0.00 16 1010.6
20260503204046 82 212 17.0 24.0 0.00 0.00 0.00 16 1010.7
20260503203550 82 197 14.0 24.0 0.00 0.00 0.00 17 1010.7
20260503203048 83 205 16.0 24.0 0.00 0.00 0.00 17 1010.8
20260503202548 83 238 15.0 25.0 0.00 0.00 0.00 17 1010.8
20260503202048 82 211 15.0 26.0 0.00 0.00 0.00 18 1010.9
20260503201553 82 219 16.0 26.0 0.00 0.00 0.00 17 1010.9
20260503201047 82 197 16.0 26.0 0.00 0.00 0.00 18 1011.0
20260503200549 83 216 15.0 22.0 0.00 0.00 0.00 17 1011.2
20260503200057 82 223 15.0 24.0 0.00 0.00 0.00 16 1011.2
20260503195549 82 205 17.0 25.0 0.00 0.00 0.00 16 1011.3
20260503195045 83 204 15.0 26.0 0.00 0.00 0.00 16 1011.3
20260503194553 83 228 17.0 26.0 0.00 0.00 0.00 17 1011.4
20260503194049 82 162 17.0 26.0 0.00 0.00 0.00 17 1011.4
20260503193549 82 212 16.0 28.0 0.00 0.00 0.00 17 1011.6
20260503193055 82 186 17.0 28.0 0.00 0.00 0.00 17 1011.6
20260503192545 82 195 14.0 30.0 0.00 0.00 0.00 18 1011.6
20260503192048 82 242 17.0 30.0 0.00 0.00 0.00 17 1011.7
20260503191610 82 202 18.0 30.0 0.00 0.00 0.00 17 1011.8
20260503191049 82 220 17.0 28.0 0.00 0.00 0.00 18 1011.9
20260503190549 82 184 20.0 28.0 0.00 0.00 0.00 18 1012.0
20260503190056 82 205 15.0 25.0 0.00 0.00 0.00 19 1012.1
20260503185551 81 203 16.0 25.0 0.00 0.00 0.00 18 1012.2
20260503185050 81 207 18.0 25.0 0.00 0.00 0.00 17 1012.4
20260503184600 81 219 15.0 25.0 0.00 0.00 0.00 17 1012.5
20260503184054 81 217 17.0 25.0 0.00 0.00 0.00 18 1012.6
20260503183548 81 187 19.0 28.0 0.00 0.00 0.00 18 1012.7
20260503183112 81 210 16.0 28.0 0.00 0.00 0.00 19 1012.9
20260503182548 81 212 17.0 28.0 0.00 0.00 0.00 18 1013.0
20260503182046 81 255 17.0 26.0 0.00 0.00 0.00 19 1013.1
20260503181555 80 231 19.0 26.0 0.00 0.00 0.00 19 1013.2
20260503181049 80 219 17.0 28.0 0.00 0.00 0.00 20 1013.3